CST,Max TemperatureF,Mean TemperatureF,Min TemperatureF,Max Dew PointF,MeanDew PointF,Min DewpointF,Max Humidity, Mean Humidity, Min Humidity, Max Sea Level PressureIn, Mean Sea Level PressureIn, Min Sea Level PressureIn, Max VisibilityMiles, Mean VisibilityMiles, Min VisibilityMiles, Max Wind SpeedMPH, Mean Wind SpeedMPH, Max Gust SpeedMPH,PrecipitationIn, CloudCover, Events, WindDirDegrees
2013-2-1,27,18,9,21,10,0,85,61,51,30.46,30.33,30.17,10,9,2,14,9,21,0.00,5,Snow,218
2013-2-2,36,30,24,25,20,16,89,68,57,30.18,30.10,30.05,10,9,2,20,9,29,0.00,6,Snow,261
2013-2-3,35,30,25,29,21,16,93,71,48,30.16,30.08,30.00,10,10,5,23,7,32,0.00,5,Snow,285
2013-2-4,46,37,28,31,26,21,80,69,51,30.00,29.89,29.80,10,10,10,18,9,22,0.00,3,,302
2013-2-5,49,38,28,34,29,23,93,76,55,30.13,29.97,29.87,10,10,7,18,6,28,0.00,3,,248
2013-2-6,49,36,24,34,31,24,100,77,50,30.22,30.14,30.05,10,8,4,13,5,,0.00,0,,152
2013-2-7,42,40,37,41,37,32,96,87,70,30.06,29.97,29.87,10,5,1,18,8,25,0.39,8,Rain,210
2013-2-8,37,34,30,36,30,26,97,85,77,30.39,30.29,30.06,10,8,2,18,11,23,0.00,8,,352
2013-2-9,40,36,31,35,29,26,85,80,72,30.37,30.23,30.02,10,10,7,17,9,26,0.01,5,Rain,140
2013-2-10,53,46,39,51,42,31,93,84,56,30.03,29.71,29.53,10,8,2,26,15,40,0.36,6,Rain-Thunderstorm,166
2013-2-11,46,38,31,32,28,24,87,64,50,30.15,29.97,29.71,10,10,10,33,21,45,0.00,3,,269
2013-2-12,41,34,26,31,28,24,93,79,54,30.18,30.08,29.95,10,9,5,7,4,,0.00,0,,267
2013-2-13,51,42,32,34,31,28,92,72,44,29.95,29.85,29.79,10,10,7,16,6,23,0.00,0,,227
2013-2-14,50,42,34,35,32,29,84,70,52,30.06,29.91,29.77,10,10,10,23,10,29,0.00,3,,265
2013-2-15,37,31,25,30,19,12,85,60,36,30.27,30.21,30.07,10,10,10,17,11,24,0.00,2,,312
2013-2-16,35,26,17,18,15,11,83,64,41,30.27,30.21,30.16,10,10,10,16,8,23,0.00,0,,311
2013-2-17,43,30,17,28,21,14,86,67,42,30.19,30.09,29.89,10,10,10,17,9,22,0.00,0,,122
2013-2-18,58,45,32,49,36,24,95,74,60,29.89,29.72,29.50,10,10,4,28,16,41,0.18,4,Rain-Snow,193
2013-2-19,31,26,21,24,16,11,75,66,55,30.29,30.10,29.87,10,10,10,31,22,39,0.03,5,,281
2013-2-20,25,18,10,17,10,3,82,65,51,30.43,30.36,30.29,10,10,10,16,8,20,0.00,1,,346
2013-2-21,33,26,18,33,23,15,98,87,73,30.35,30.12,29.84,10,6,0,29,12,34,0.17,4,Snow,82
2013-2-22,35,30,26,33,28,20,96,84,70,30.04,29.92,29.79,10,9,2,17,5,23,0.00,8,Snow,229
2013-2-23,32,24,15,22,18,13,90,77,65,30.04,30.02,29.98,10,9,5,12,7,,0.00,1,,237
2013-2-24,39,26,14,29,21,12,93,77,54,30.14,30.09,30.02,10,9,5,9,4,,0.00,0,,120
2013-2-25,43,34,25,34,30,24,93,80,66,30.10,29.99,29.77,10,9,5,23,10,30,0.00,1,,72
2013-2-26,37,35,33,35,33,32,98,93,81,29.76,29.52,29.42,10,5,2,29,19,37,0.57,8,Rain-Snow,20
2013-2-27,35,34,32,33,32,31,97,93,82,29.85,29.74,29.63,10,4,1,17,12,22,0.02,8,Snow,278
2013-2-28,35,34,32,32,32,30,96,91,81,30.10,30.00,29.85,10,6,2,15,12,18,0.00,8,Snow,294